TimeCDT,TemperatureF,Dew PointF,Humidity,Sea Level PressureIn,VisibilityMPH,Wind Direction,Wind SpeedMPH,Gust SpeedMPH,PrecipitationIn,Events,Conditions,WindDirDegrees,DateUTC
12:14 AM,27.5,22.1,80,29.87,10.0,North,16.1,20.7,N/A,,Overcast,350,2013-03-11 05:14:00
12:34 AM,27.5,22.1,80,29.87,10.0,North,12.7,18.4,N/A,,Overcast,350,2013-03-11 05:34:00
12:53 AM,27.5,22.1,80,29.87,10.0,North,10.4,-,N/A,,Overcast,350,2013-03-11 05:53:00
1:14 AM,27.5,22.1,80,29.87,10.0,North,11.5,17.3,N/A,,Overcast,350,2013-03-11 06:14:00
1:34 AM,27.3,22.1,81,29.86,10.0,North,11.5,19.6,N/A,,Overcast,350,2013-03-11 06:34:00
1:54 AM,27.1,22.1,81,29.85,10.0,North,10.4,17.3,N/A,,Overcast,350,2013-03-11 06:54:00
2:14 AM,27.1,21.9,81,29.85,10.0,North,9.2,18.4,N/A,,Overcast,350,2013-03-11 07:14:00
2:34 AM,27.0,22.1,82,29.85,10.0,NNW,11.5,-,N/A,,Overcast,340,2013-03-11 07:34:00
2:54 AM,26.6,22.1,83,29.85,10.0,North,13.8,-,N/A,,Overcast,350,2013-03-11 07:54:00
3:14 AM,26.4,22.1,84,29.84,10.0,North,12.7,17.3,N/A,,Overcast,350,2013-03-11 08:14:00
3:34 AM,26.2,21.9,84,29.84,10.0,NNW,13.8,-,N/A,,Overcast,340,2013-03-11 08:34:00
3:54 AM,26.2,21.9,84,29.83,10.0,NNW,13.8,18.4,N/A,,Overcast,340,2013-03-11 08:54:00
4:14 AM,26.1,21.6,83,29.83,10.0,North,12.7,-,N/A,,Overcast,350,2013-03-11 09:14:00
4:34 AM,26.1,21.6,83,29.82,10.0,North,12.7,-,N/A,,Overcast,350,2013-03-11 09:34:00
4:54 AM,25.9,21.6,84,29.81,10.0,NNW,13.8,-,N/A,,Overcast,340,2013-03-11 09:54:00
5:14 AM,25.7,21.6,84,29.81,10.0,NNW,13.8,19.6,N/A,,Overcast,340,2013-03-11 10:14:00
5:34 AM,25.7,21.6,84,29.81,10.0,NNW,13.8,18.4,N/A,,Overcast,340,2013-03-11 10:34:00
5:54 AM,25.5,21.4,84,29.80,10.0,NNW,11.5,-,N/A,,Overcast,340,2013-03-11 10:54:00
6:14 AM,25.5,21.2,84,29.80,10.0,NNW,11.5,18.4,N/A,,Overcast,340,2013-03-11 11:14:00
6:33 AM,25.3,21.2,84,29.80,10.0,NNW,10.4,-,N/A,,Overcast,340,2013-03-11 11:33:00
6:54 AM,25.2,21.0,84,29.80,10.0,NNW,10.4,16.1,N/A,,Overcast,330,2013-03-11 11:54:00
7:14 AM,25.2,21.0,84,29.80,10.0,NNW,11.5,17.3,N/A,,Overcast,330,2013-03-11 12:14:00
7:34 AM,25.2,20.8,84,29.81,10.0,NW,11.5,-,N/A,,Overcast,320,2013-03-11 12:34:00
7:54 AM,25.2,20.8,84,29.81,10.0,NW,11.5,-,N/A,,Overcast,320,2013-03-11 12:54:00
8:14 AM,24.8,20.7,84,29.81,10.0,NW,12.7,-,N/A,,Overcast,320,2013-03-11 13:14:00
8:34 AM,24.8,20.3,83,29.81,10.0,NW,13.8,-,N/A,,Overcast,320,2013-03-11 13:34:00
8:54 AM,25.0,20.7,84,29.81,10.0,NW,11.5,16.1,N/A,,Overcast,320,2013-03-11 13:54:00
9:14 AM,24.8,20.3,83,29.81,10.0,NW,13.8,18.4,N/A,,Overcast,320,2013-03-11 14:14:00
9:34 AM,24.8,20.3,83,29.81,10.0,NW,12.7,-,N/A,,Overcast,320,2013-03-11 14:34:00
9:54 AM,24.8,20.3,83,29.81,10.0,NW,13.8,-,N/A,,Overcast,320,2013-03-11 14:54:00
10:14 AM,24.8,20.3,83,29.81,10.0,NNW,11.5,17.3,N/A,,Overcast,330,2013-03-11 15:14:00
10:34 AM,24.8,20.7,84,29.81,10.0,NNW,9.2,-,N/A,,Overcast,330,2013-03-11 15:34:00
10:54 AM,25.5,21.0,83,29.81,10.0,NNW,10.4,-,N/A,,Overcast,340,2013-03-11 15:54:00
11:14 AM,25.7,20.7,81,29.80,10.0,NW,10.4,-,N/A,,Overcast,320,2013-03-11 16:14:00
11:34 AM,25.7,20.8,82,29.80,10.0,NW,9.2,-,N/A,,Overcast,320,2013-03-11 16:34:00
11:54 AM,26.4,20.8,79,29.80,10.0,NW,11.5,-,N/A,,Overcast,320,2013-03-11 16:54:00
12:14 PM,26.8,21.0,79,29.79,10.0,NW,10.4,-,N/A,,Overcast,310,2013-03-11 17:14:00
12:34 PM,27.1,21.4,79,29.79,10.0,NW,10.4,-,N/A,,Overcast,320,2013-03-11 17:34:00
12:54 PM,27.3,21.2,78,29.78,10.0,NW,10.4,-,N/A,,Overcast,310,2013-03-11 17:54:00
1:14 PM,27.5,21.0,77,29.78,10.0,WNW,13.8,-,N/A,,Overcast,300,2013-03-11 18:14:00
1:34 PM,27.7,20.8,75,29.77,10.0,WNW,12.7,17.3,N/A,,Overcast,300,2013-03-11 18:34:00
1:54 PM,28.0,21.0,75,29.77,10.0,NW,12.7,-,N/A,,Overcast,310,2013-03-11 18:54:00
2:14 PM,28.9,21.4,73,29.76,10.0,NW,9.2,-,N/A,,Overcast,320,2013-03-11 19:14:00
2:33 PM,29.1,21.4,73,29.76,10.0,NW,12.7,-,N/A,,Overcast,310,2013-03-11 19:33:00
2:54 PM,28.9,21.2,73,29.76,10.0,NW,11.5,-,N/A,,Overcast,310,2013-03-11 19:54:00
3:14 PM,28.8,20.5,71,29.76,10.0,WNW,10.4,-,N/A,,Mostly Cloudy,300,2013-03-11 20:14:00
3:35 PM,28.8,20.5,71,29.76,10.0,NW,12.7,-,N/A,,Mostly Cloudy,310,2013-03-11 20:35:00
3:54 PM,28.4,20.1,71,29.77,10.0,WNW,12.7,16.1,N/A,,Overcast,300,2013-03-11 20:54:00
4:14 PM,28.4,19.6,70,29.77,10.0,WNW,11.5,-,N/A,,Overcast,300,2013-03-11 21:14:00
4:34 PM,28.8,19.6,69,29.77,10.0,WNW,11.5,-,N/A,,Overcast,300,2013-03-11 21:34:00
4:54 PM,28.9,20.5,71,29.78,10.0,WNW,13.8,-,N/A,,Overcast,290,2013-03-11 21:54:00
5:14 PM,28.0,18.9,68,29.78,10.0,West,15.0,-,N/A,,Overcast,280,2013-03-11 22:14:00
5:34 PM,26.4,20.1,77,29.78,10.0,West,11.5,-,N/A,,Overcast,260,2013-03-11 22:34:00
5:54 PM,25.5,19.8,79,29.79,10.0,West,12.7,20.7,N/A,,Mostly Cloudy,270,2013-03-11 22:54:00
6:14 PM,25.5,19.4,78,29.79,10.0,West,15.0,-,N/A,,Overcast,280,2013-03-11 23:14:00
6:34 PM,25.5,19.2,77,29.79,10.0,West,10.4,-,N/A,,Overcast,280,2013-03-11 23:34:00
6:54 PM,25.5,19.4,78,29.79,10.0,West,10.4,-,N/A,,Mostly Cloudy,280,2013-03-11 23:54:00
7:14 PM,24.8,18.5,77,29.80,10.0,West,10.4,-,N/A,,Overcast,280,2013-03-12 00:14:00
7:34 PM,24.1,18.0,77,29.80,10.0,WNW,11.5,-,N/A,,Overcast,290,2013-03-12 00:34:00
7:54 PM,23.5,17.6,78,29.81,10.0,West,6.9,-,N/A,,Overcast,280,2013-03-12 00:54:00
8:14 PM,22.6,17.1,79,29.81,10.0,West,8.1,-,N/A,,Mostly Cloudy,280,2013-03-12 01:14:00
8:34 PM,21.9,16.7,80,29.82,10.0,West,6.9,-,N/A,,Scattered Clouds,270,2013-03-12 01:34:00
8:54 PM,21.4,17.1,83,29.83,10.0,West,10.4,-,N/A,,Scattered Clouds,270,2013-03-12 01:54:00
9:34 PM,20.3,16.2,84,29.84,10.0,West,10.4,-,N/A,,Mostly Cloudy,270,2013-03-12 02:34:00
9:54 PM,20.7,16.0,82,29.84,10.0,West,11.5,-,N/A,,Overcast,260,2013-03-12 02:54:00
10:14 PM,20.8,16.2,82,29.84,10.0,West,9.2,-,N/A,,Overcast,270,2013-03-12 03:14:00
10:34 PM,21.0,15.8,80,29.84,10.0,West,9.2,-,N/A,,Overcast,260,2013-03-12 03:34:00
10:54 PM,21.2,15.4,78,29.85,10.0,West,9.2,-,N/A,,Overcast,270,2013-03-12 03:54:00
11:14 PM,21.9,15.6,77,29.85,10.0,West,11.5,-,N/A,,Overcast,270,2013-03-12 04:14:00
11:34 PM,22.1,15.3,75,29.84,10.0,West,9.2,-,N/A,,Overcast,270,2013-03-12 04:34:00
11:54 PM,21.9,15.6,77,29.84,10.0,West,8.1,-,N/A,,Overcast,270,2013-03-12 04:54:00